| time (UTC) | temp F | wind direction | speed MPH | gust MPH | rain 1hr in | rain 24hr in | rain mn in | humidity % | barometer mb |
| 20260831133506 | 63 | 253 | 15.0 | 19.0 | 0.00 | 0.37 | 0.00 | 1009.0 | |
| 20260831130506 | 63 | 253 | 15.0 | 19.0 | 0.00 | 0.37 | 0.00 | 1009.0 | |
| 20260831123505 | 63 | 259 | 13.0 | 17.0 | 0.00 | 0.37 | 0.00 | 1008.0 | |
| 20260831120506 | 63 | 259 | 13.0 | 17.0 | 0.00 | 0.37 | 0.00 | 1008.0 | |
| 20260831113505 | 62 | 263 | 14.0 | 17.0 | 0.00 | 0.37 | 0.00 | 1008.0 | |
| 20260831110505 | 62 | 263 | 14.0 | 17.0 | 0.00 | 0.37 | 0.00 | 1008.0 | |
| 20260831103505 | 60 | 261 | 14.0 | 18.0 | 0.00 | 0.37 | 0.00 | 1007.0 | |
| 20260831100505 | 60 | 261 | 14.0 | 18.0 | 0.00 | 0.37 | 0.00 | 1007.0 | |
| 20260831093505 | 59 | 255 | 13.0 | 16.0 | 0.00 | 0.37 | 0.00 | 1007.0 | |
| 20260831090505 | 59 | 255 | 13.0 | 16.0 | 0.00 | 0.12 | 0.00 | 1007.0 | |
| 20260831083505 | 58 | 259 | 11.0 | 15.0 | 0.00 | 0.12 | 0.00 | 1006.0 | |
| 20260831080505 | 58 | 259 | 11.0 | 15.0 | 0.00 | 0.12 | 0.00 | 1006.0 | |
| 20260831073506 | 57 | 271 | 9.0 | 13.0 | 0.00 | 0.12 | 0.00 | 1006.0 | |
| 20260831070505 | 57 | 271 | 9.0 | 13.0 | 0.00 | 0.12 | 0.00 | 1006.0 | |
| 20260831063506 | 57 | 280 | 8.0 | 11.0 | 0.00 | 0.12 | 0.00 | 1005.0 | |
| 20260831060505 | 56 | 286 | 8.0 | 11.0 | 0.00 | 0.12 | 0.00 | 1005.0 | |
| 20260831053506 | 57 | 285 | 8.0 | 12.0 | 0.00 | 0.12 | 0.00 | 1005.0 | |
| 20260831050506 | 57 | 285 | 8.0 | 12.0 | 0.00 | 0.12 | 0.00 | 1005.0 | |
| 20260831043506 | 57 | 275 | 8.0 | 11.0 | 0.00 | 0.12 | 0.00 | 1004.0 | |
| 20260831040506 | 57 | 275 | 8.0 | 11.0 | 0.00 | 0.12 | 0.00 | 1004.0 | |
| 20260831033506 | 57 | 296 | 5.0 | 7.0 | 0.00 | 0.12 | 0.00 | 1004.0 | |
| 20260831030506 | 57 | 296 | 5.0 | 7.0 | 0.00 | 0.12 | 0.00 | 1004.0 | |
| 20260831023505 | 58 | 349 | 4.0 | 6.0 | 0.00 | 0.12 | 0.00 | 1004.0 | |
| 20260831020505 | 58 | 349 | 4.0 | 6.0 | 0.00 | 0.12 | 0.00 | 1004.0 | |
| 20260831013505 | 58 | 360 | 5.0 | 7.0 | 0.00 | 0.12 | 0.00 | 1004.0 | |
| 20260831010505 | 58 | 360 | 5.0 | 7.0 | 0.00 | 0.12 | 0.00 | 1004.0 | |
| 20260831003505 | 58 | 15 | 4.0 | 5.0 | 0.00 | 0.12 | 0.00 | 1004.0 | |
| 20260831000505 | 58 | 261 | 3.0 | 5.0 | 0.00 | 0.00 | 0.00 | 1004.0 | |
| 20260830233505 | 59 | 165 | 2.0 | 3.0 | 0.00 | 0.00 | 0.00 | 1004.0 | |
| 20260830230505 | 59 | 165 | 2.0 | 3.0 | 0.00 | 0.00 | 0.00 | 1004.0 | |
| 20260830223505 | 59 | 116 | 3.0 | 4.0 | 0.00 | 0.00 | 0.00 | 1004.0 | |
| 20260830220505 | 59 | 116 | 3.0 | 4.0 | 0.00 | 0.00 | 0.00 | 1004.0 | |
| 20260830213506 | 60 | 122 | 2.0 | 3.0 | 0.00 | 0.00 | 0.00 | 1004.0 | |
| 20260830210506 | 60 | 122 | 2.0 | 3.0 | 0.00 | 0.00 | 0.00 | 1004.0 | |
| 20260830203506 | 60 | 118 | 2.0 | 3.0 | 0.00 | 0.00 | 0.00 | 1004.0 | |
| 20260830200506 | 60 | 118 | 2.0 | 3.0 | 0.00 | 0.00 | 0.00 | 1004.0 | |
| 20260830193506 | 60 | 122 | 1.0 | 2.0 | 0.00 | 0.00 | 0.00 | 1004.0 | |
| 20260830190506 | 60 | 122 | 1.0 | 2.0 | 0.00 | 0.00 | 0.00 | 1004.0 | |
| 20260830183505 | 60 | 138 | 4.0 | 4.0 | 0.00 | 0.00 | 0.00 | 1005.0 | |
| 20260830180506 | 60 | 89 | 4.0 | 6.0 | 0.00 | 0.12 | 0.00 | 1004.0 | |
| 20260830173505 | 60 | 105 | 7.0 | 9.0 | 0.00 | 0.12 | 0.00 | 1004.0 | |
| 20260830170505 | 60 | 105 | 7.0 | 9.0 | 0.00 | 0.12 | 0.00 | 1004.0 | |
| 20260830163505 | 60 | 94 | 5.0 | 6.0 | 0.00 | 0.12 | 0.00 | 1004.0 | |
| 20260830160505 | 60 | 94 | 5.0 | 6.0 | 0.00 | 0.12 | 0.00 | 1004.0 | |
| 20260830153506 | 61 | 69 | 4.0 | 6.0 | 0.00 | 0.12 | 0.00 | 1005.0 | |
| 20260830150505 | 61 | 69 | 4.0 | 6.0 | 0.00 | 0.12 | 0.00 | 1005.0 | |
| 20260830143506 | 61 | 71 | 6.0 | 8.0 | 0.00 | 0.12 | 0.00 | 1005.0 | |
| 20260830140505 | 61 | 71 | 6.0 | 8.0 | 0.00 | 0.12 | 0.00 | 1005.0 |